TimePDT,TemperatureF,Dew PointF,Humidity,Sea Level PressureIn,VisibilityMPH,Wind Direction,Wind SpeedMPH,Gust SpeedMPH,PrecipitationIn,Events,Conditions,WindDirDegrees,DateUTC
12:52 AM,79.0,46.0,31,29.86,10.0,Variable,4.6,-,N/A,,Clear,0,2012-10-04 07:52:00
1:52 AM,78.1,48.0,35,29.86,10.0,Variable,3.5,-,N/A,,Clear,0,2012-10-04 08:52:00
2:52 AM,75.9,46.0,35,29.87,10.0,ESE,5.8,-,N/A,,Clear,110,2012-10-04 09:52:00
3:52 AM,75.9,46.9,36,29.87,10.0,South,8.1,-,N/A,,Clear,180,2012-10-04 10:52:00
4:52 AM,79.0,44.1,29,29.87,10.0,SSE,6.9,-,N/A,,Clear,160,2012-10-04 11:52:00
5:52 AM,75.0,45.0,34,29.88,10.0,South,10.4,-,N/A,,Clear,180,2012-10-04 12:52:00
6:52 AM,73.9,43.0,33,29.91,10.0,SSW,4.6,-,N/A,,Clear,210,2012-10-04 13:52:00
7:52 AM,77.0,41.0,28,29.93,10.0,NW,3.5,-,N/A,,Clear,320,2012-10-04 14:52:00
8:52 AM,80.1,44.1,28,29.94,10.0,Calm,Calm,-,N/A,,Clear,0,2012-10-04 15:52:00
9:52 AM,84.0,44.1,25,29.96,10.0,Calm,Calm,-,N/A,,Clear,0,2012-10-04 16:52:00
10:52 AM,90.0,39.9,17,29.96,10.0,Variable,5.8,-,N/A,,Clear,0,2012-10-04 17:52:00
11:52 AM,93.0,42.1,17,29.94,10.0,Variable,3.5,-,N/A,,Clear,0,2012-10-04 18:52:00
12:52 PM,95.0,42.1,16,29.92,10.0,South,9.2,-,N/A,,Clear,170,2012-10-04 19:52:00
1:52 PM,97.0,39.0,13,29.89,10.0,SE,6.9,-,N/A,,Clear,130,2012-10-04 20:52:00
2:52 PM,97.0,37.0,12,29.87,10.0,SE,8.1,-,N/A,,Clear,140,2012-10-04 21:52:00
3:52 PM,99.0,33.1,10,29.85,10.0,Variable,6.9,25.3,N/A,,Clear,0,2012-10-04 22:52:00
4:52 PM,98.1,33.1,10,29.84,10.0,South,10.4,-,N/A,,Clear,180,2012-10-04 23:52:00
6:52 PM,93.0,32.0,12,29.84,10.0,SW,6.9,-,N/A,,Clear,220,2012-10-05 01:52:00
7:52 PM,86.0,39.0,19,29.85,10.0,SSW,4.6,-,N/A,,Clear,210,2012-10-05 02:52:00
8:52 PM,87.1,34.0,15,29.86,10.0,SW,6.9,-,N/A,,Clear,230,2012-10-05 03:52:00
9:52 PM,84.9,41.0,21,29.87,10.0,SW,5.8,-,N/A,,Clear,230,2012-10-05 04:52:00
10:52 PM,78.1,46.9,33,29.88,10.0,SSE,6.9,-,N/A,,Clear,150,2012-10-05 05:52:00
11:52 PM,79.0,45.0,30,29.87,10.0,South,12.7,-,N/A,,Clear,190,2012-10-05 06:52:00